Regional Weather Roundup
Issued by NWS

Home | Current Version | Previous Version | Text Only | Print | Product List | Glossary Off
Versions: 1 2 3 4 5 6 7 8 9 10 11 12 13 14 15 16 17 18 19 20 21 22 23 24 25 26 27

000
ASUS45 KTFX 271610
RWRMT
MONTANA REGIONAL WEATHER ROUNDUP
NATIONAL WEATHER SERVICE GREAT FALLS MT
1000 AM MDT TUE SEP 27 2016

NOTE: "FAIR" INDICATES FEW OR NO CLOUDS BELOW 12000 FEET WITH NO
SIGNIFICANT WEATHER AND/OR OBSTRUCTIONS TO VISIBILITY.

MTZ001>007-043-271700-
WEST OF THE DIVIDE

CITY           SKY/WX    TMP DP  RH WIND       PRES   REMARKS
KALISPELL      SUNNY     53  47  79 CALM      30.08R
MISSOULA       SUNNY     52  46  80 CALM      30.16S
BUTTE          SUNNY     50  40  68 CALM      30.25S
MULLAN PASS    SUNNY     58  40  51 VRB7      30.21R
ANACONDA         N/A     66  37  34 S12G17    30.19S
DEER LODGE       N/A     54  41  62 CALM      30.21S
EUREKA           N/A     57  46  67 N8        30.01F
HAMILTON         N/A     57  46  67 CALM      30.15F
LIBBY            N/A     54  46  76 CALM      30.05S
PLAINS           N/A     53  47  80 CALM      30.08S
RONAN            N/A     60  49  67 CALM      30.12R
$$

MTZ008-052>055-271700-
SOUTHWEST MONTANA

CITY           SKY/WX    TMP DP  RH WIND       PRES   REMARKS
BOZEMAN        SUNNY     55  43  63 CALM      30.20S
DILLON         SUNNY     57  39  51 SW12      30.23S
W YELLOWSTONE  SUNNY     43  39  87 CALM      30.37S
ENNIS          SUNNY     61  37  41 SE5       30.29S
THREE FORKS      N/A     53  31  43 CALM      30.16S
TWIN BRIDGES     N/A     54  39  56 SE5       30.20R
$$

MTZ009-010-012-014-046-048-049-054-271700-
EAST SLOPES AND CENTRAL MONTANA

CITY           SKY/WX    TMP DP  RH WIND       PRES   REMARKS
CUT BANK       SUNNY     75  41  29 SW18G25   30.00S
GREAT FALLS    SUNNY     68  43  40 S16       30.04S
MALMSTROM AFB  SUNNY     69  44  40 SW16      30.04S
HELENA         SUNNY     55  43  63 CALM      30.15S
AUGUSTA          N/A     63  44  48 S7        30.07S
BOWMANS CRNR     N/A     64  42  45 S17       30.08R
CHOTEAU          N/A     68  43  40 S7        30.06S
CONRAD           N/A     71  45  39 S8        30.03S
FAIRFIELD        N/A     68  42  38 S17       30.04R
POWER            N/A     69  42  37 SW14      30.04R
RAYNESFORD       N/A     74  38  27 W16G26    30.06S
$$

MTZ011-013-016-021-045-047-050-051-271700-
NORTH CENTRAL MONTANA

CITY           SKY/WX    TMP DP  RH WIND       PRES   REMARKS
HAVRE          SUNNY     69  46  43 SW20      29.96S
LEWISTOWN      SUNNY     67  44  43 NE3       30.08S
N BAR RANCH      N/A     68  45  42 CALM      30.12S
CHINOOK          N/A     57  48  72 CALM      29.96S
DENTON           N/A     68  47  47 SW10      30.01S
GEYSER           N/A     63  44  48 S7        30.07S
GRASS RANGE      N/A     70  42  35 W13       30.03S
JUDITH GAP       N/A     68  46  45 SW10G17   30.12R
ROY              N/A     72  47  40 MISG      30.02S
STANFORD         N/A     74  41  30 W13       30.08S
$$

MTZ017>020-022>027-061-062-271700-
NORTHEAST MONTANA

CITY           SKY/WX    TMP DP  RH WIND       PRES   REMARKS
GLASGOW        SUNNY     60  49  66 VRB7      29.96F
JORDAN           N/A     66  50  56 W7        29.99S
SIDNEY         SUNNY     56  48  74 S10       29.99F
WOLF POINT     SUNNY     56  48  74 CALM      29.98S
PLENTYWOOD       N/A     59  45  58 S6        29.97
POPLAR           N/A     57  46  67 SW3       29.97F
SCOBEY           N/A     57  42  57 S2        29.94F
$$

MTZ028>42-056>058-271700-
SOUTHCENTRAL AND SOUTHEAST MONTANA

CITY           SKY/WX    TMP DP  RH WIND       PRES   REMARKS
BAKER          SUNNY     64  49  57 W10       30.04F
BILLINGS       SUNNY     65  45  48 SW21      30.09S
LIVINGSTON     SUNNY     65  41  41 NW21G29   30.16S
MILES CITY     SUNNY     58  49  72 S8        30.03S
BIG TIMBER     SUNNY     68  41  37 W13       30.16F
EKALAKA          N/A     65  45  48 W7        30.04S
FORSYTH          N/A     63  50  63 SW5       30.03S
HARLOWTON        N/A     67  44  43 W14       30.12S
LAUREL           N/A     65  45  48 SW14      30.08S
ROUNDUP          N/A     63  44  49 S12       29.98S
$$

REGIONAL REPORTS...DAKOTAS

CITY           SKY/WX    TMP DP  RH WIND       PRES   REMARKS
WILLISTON      SUNNY     57  46  66 SE5       29.99F
MINOT          SUNNY     59  38  45 W3        29.99S
DICKINSON      SUNNY     64  47  53 W5        30.00F
BEACH            N/A     63  50  63 S5        30.04F
CROSBY           N/A     61  41  48 S6        30.00F
WATFORD CITY     N/A     57  46  67 CALM      30.00F
BISMARCK       SUNNY     57  41  55 CALM      30.01F
GRAND FORKS    PTSUNNY   51  42  71 NW18G28   29.92S
FARGO          SUNNY     56  41  57 NW20      29.91S
BUFFALO SD       N/A     65  50  58 W7        29.98S
RAPID CITY     SUNNY     70  46  42 CALM      30.07F
$$

REGIONAL REPORTS...WYOMING/IDAHO/WASHINGTON

CITY           SKY/WX    TMP DP  RH WIND       PRES   REMARKS
GILLETTE         N/A     69  44  40 W8        30.13F
SHERIDAN       SUNNY     69  51  52 CALM      30.12S
BUFFALO WY     SUNNY     73  32  22 S3        30.18S
CODY           SUNNY     64  46  52 NW3       30.21S
YELLOWSTONE LA   N/A     44  43  96 CALM      30.42S
IDAHO FALLS    SUNNY     53  46  77 N5        30.27R
SALMON         SUNNY     48  43  81 CALM      30.25F
BOISE          SUNNY     65  43  44 CALM      30.13R
SPOKANE        MOSUNNY   61  43  51 S7        30.06R
$$

REGIONAL REPORTS...ALBERTA

CITY           SKY/WX    TMP DP  RH WIND       PRES   REMARKS
EDMONTON       PTSUNNY   55  39  54 W10G21    29.97R
CALGARY        MOSUNNY   55  43  62 N25G39    29.98R
LETHBRIDGE     MOSUNNY   72  46  40 SW9G18    29.92S
MEDICINE HAT   MOSUNNY   68  48  49 SW17G25   29.85S
WATERTON GATE    N/A     72  39  30 W14G20      N/A
MILK RIVER       N/A     68  46  45 S2          N/A
$$

REGIONAL REPORTS...SASKATCHEWAN

CITY           SKY/WX    TMP DP  RH WIND       PRES   REMARKS
SWIFT CURRENT  SUNNY     64  46  52 SW15G21   29.88R
REGINA         SUNNY     57  41  54 SE16      29.94F
SASKATOON      MOSUNNY   59  45  58 SE8       29.87S
ROCKGLEN         N/A     63  48  59 SW12        N/A
ASSINIBOIA       N/A     55  43  62 NW20        N/A
$$




USA.gov is the U.S. government's official web portal to all federal, state and local government web resources and services.